Flag for Japan Weather past 2 weeks in Kumamoto, Japan

Now
72 °F

Broken clouds.


Feels Like: 71 °F
Forecast: 64 / 84 °F
Wind: 5 mph from Southwest

Location: Kumamoto Airport

Current Time: Jul 2, 2015 at 5:47:21 PM

Latest Report: Jul 2, 2015 at 5:00 PM


Visibility: N/A

Pressure: 29.62 "Hg

Humidity: 83%

Dew point: 66 °F

Location of KumamotoLocation

Historic Weather in Kumamoto — Graph

°F

Kumamoto temperature yesterday

Maximum temperature yesterday: 72 °F (at 6:51 AM)
Minimum temperature yesterday: 68 °F (at 7:00 PM)
Average temperature yesterday: 70 °F

Past Weeks' High & Low Weather Summary

 TemperatureHumidityPressure
High84 °F (Jun 29, 2:00 PM)100% (Jun 17, 6:00 PM)29.92 "Hg (Jun 17, 6:00 PM)
Low66 °F (Jun 17, 5:00 PM)48% (Jun 28, 1:00 PM)29.42 "Hg (Jul 1, 6:51 AM)
Average73 °F85%29.67 "Hg
* Reported Jun 17 4:00 PM — Jul 2 4:00 PM, Kumamoto, Weather by CustomWeather, © 2015

Note: Actual official high and low records may vary slightly from our data, if they occured in-between our weather recording intervals... More about our weather records

Advertising

Kumamoto weather history for previous 24 hours

 ConditionsComfort  
Time TempWeatherWind HumidityBarometerVisibility
4:00 PM
Thu, Jul 2
73 °FBroken clouds.7 mph74%29.62 "HgN/A
3:00 PM77 °FPartly sunny.8 mph65%29.62 "HgN/A
2:00 PM79 °FPartly sunny.5 mph61%29.62 "HgN/A
1:00 PM77 °FPartly sunny.7 mph61%29.62 "HgN/A
12:00 PM79 °FBroken clouds.8 mph61%29.65 "HgN/A
11:00 AM77 °FBroken clouds.3 mph65%29.62 "HgN/A
10:00 AM73 °FBroken clouds.2 mph74%29.62 "HgN/A
9:00 AM72 °FBroken clouds.2 mph78%29.62 "HgN/A
8:00 AM72 °FBroken clouds.3 mph83%29.65 "Hg4 mi
7:00 AM68 °FBroken clouds.3 mph94%29.62 "Hg4 mi
9:00 PM
Wed, Jul 1
68 °FFog.7 mph100%29.59 "Hg3 mi
8:00 PM68 °FFog.5 mph100%29.59 "Hg1 mi
7:45 PM70 °FFog.5 mph94%29.56 "Hg1 mi
7:00 PM68 °FSprinkles. Fog.6 mph100%29.56 "Hg3 mi
6:49 PM70 °FSprinkles. Fog.5 mph94%29.53 "Hg3 mi
6:00 PM70 °FSprinkles. Broken clouds.7 mph94%29.53 "Hg4 mi
5:00 PM72 °FSprinkles. Broken clouds.8 mph88%29.53 "Hg5 mi
Weather by CustomWeather, © 2015

See weather overviewHow to use our weather pages